Location: Arrodets-la-Barthe
(43.0306°N, 0.2829°E)
Time: 13:02:25
(UTC+00:00)

ESTCUBE 1 - Pass Details

Date: 11 April 2023
Orbit: 640 x 654 km, 97.9° (Epoch: 29 May)

Event Time Altitude Azimuth Distance (km) Brightness Sun altitude
Exits shadow 20:22:27 11° 57° (ENE) 1,971 ? -18.7°
Drops below altitude 10° 20:23:41 10° 41° (NE) 2,069 ? -18.9°
Sets 20:27:25 0° 9° (N) 2,984 ? -19.5°
